Regional Weather Roundup
Issued by NWS

Home | Current Version | Previous Version | Graphics & Text | Print | Product List | Glossary On
Versions: 1 2 3 4 5 6 7 8 9 10 11 12 13 14 15 16 17 18 19 20 21 22 23 24 25 26 27 28 29 30 31 32 33 34 35 36 37 38 39 40 41 42 43 44 45 46 47 48 49 50
000
ASUS43 KLMK 181002
RWRKY
KENTUCKY REGIONAL WEATHER ROUNDUP
NATIONAL WEATHER SERVICE LOUISVILLE KY
600 AM EDT THU SEP 18 2014

NOTE "FAIR" INDICATES FEW OR NO CLOUDS BELOW 12,000 FEET
WITH NO SIGNIFICANT WEATHER AND/OR OBSTRUCTIONS TO VISIBILITY.

KYZ001>023-026-027-061>063-070>075-181100-
WESTERN AND SOUTH CENTRAL KENTUCKY

CITY           SKY/WX    TMP DP  RH WIND       PRES   REMARKS
PADUCAH        CLOUDY    65  60  84 CALM      29.97R
HENDERSON      CLOUDY    61  54  77 E5        30.00R
OWENSBORO      CLOUDY    63  55  75 E8        29.99S
HOPKINSVILLE   CLOUDY    61  61 100 E2        29.98R
BOWLING GREEN  CLEAR     56  54  93 CALM      29.98F
GLASGOW        CLOUDY    58  57  97 CALM      29.98F
$$

KYZ024-025-028>034-038-045-046-053-181100-
NORTH CENTRAL KENTUCKY

CITY           SKY/WX    TMP DP  RH WIND       PRES   REMARKS
LOUISVILLE/SDF MOCLDY    58  53  84 N6        30.01S
LOUISVILLE/LOU PTCLDY    56  52  86 N3        30.02S
FORT KNOX      CLOUDY    58  52  80 NE5       30.00S
$$

KYZ035>037-039>044-047>052-055>060-089>105-181100-
NORTHEAST KENTUCKY

CITY           SKY/WX    TMP DP  RH WIND       PRES   REMARKS
LEXINGTON      CLOUDY    59  51  75 E5        30.03R
COVINGTON      PTCLDY    55  48  77 N5        30.03R
FRANKFORT      CLOUDY    54  52  93 CALM      30.02R
$$

KYZ054-064>069-076>088-106>120-181100-
SOUTHEAST KENTUCKY

CITY           SKY/WX    TMP DP  RH WIND       PRES   REMARKS
JACKSON        MOCLDY    54  52  93 CALM      30.02R
LONDON         CLOUDY    57  54  89 CALM      30.02R
SOMERSET       NOT AVBL
MIDDLESBORO    CLOUDY    56  56  99 CALM      30.02R
MONTICELLO     MOSUNNY   59  58  96 CALM      30.02R
$$




USA.gov is the U.S. government's official web portal to all federal, state and local government web resources and services.